CW5629 Weather Reports


time (UTC)temp
C
wind
direction
speed
KPH
gust
KPH
rain 1hr
cm
rain 24hr
cm
rain mn
cm
humidity
%
barometer
mb
20260502210137 11 117 0.0 0.0 0.00 5.00 0.99 95 1010.6
20260502205129 11 117 0.0 0.0 0.00 5.00 0.99 95 1010.6
20260502204142 11 117 0.0 0.0 0.00 5.00 0.99 95 1010.5
20260502203134 11 117 0.0 0.0 0.00 5.00 0.99 95 1010.4
20260502202140 11 117 0.0 0.0 0.00 5.00 0.99 95 1010.3
20260502201112 11 117 0.0 1.6 0.00 5.00 0.99 95 1010.4
20260502200118 11 117 0.0 0.0 0.00 5.00 0.99 95 1010.3
20260502195115 11 117 0.0 0.0 0.00 5.00 0.99 94 1010.4
20260502194129 11 117 0.0 0.0 0.00 5.00 0.99 94 1010.4
20260502193115 11 117 0.0 0.0 0.00 5.00 0.99 94 1010.4
20260502192127 11 117 0.0 0.0 0.00 5.00 0.99 94 1010.4
20260502191140 11 117 0.0 0.0 0.00 5.00 0.99 94 1010.5
20260502190124 11 117 0.0 1.6 0.00 5.00 0.99 94 1010.6
20260502185115 11 117 0.0 1.6 0.00 5.00 0.99 94 1010.6
20260502184129 11 117 0.0 1.6 0.00 5.00 0.99 94 1010.7
20260502183143 11 111 0.0 0.0 0.00 5.00 0.99 94 1010.8
20260502182127 11 111 0.0 0.0 0.00 5.00 0.99 94 1010.7
20260502181117 11 111 0.0 0.0 0.00 5.00 0.99 93 1010.8
20260502180123 11 111 0.0 0.0 0.00 5.00 0.99 94 1010.9
20260502170132 11 111 0.0 0.0 0.41 5.00 0.99 93 1011.6
20260502164130 11 111 0.0 0.0 0.61 4.90 0.99 93 1011.8
20260502162135 11 111 0.0 0.0 0.79 4.70 0.94 93 1011.9
20260502161144 11 111 0.0 0.0 0.89 4.60 0.91 93 1012.1
20260502160136 11 111 0.0 0.0 1.09 4.50 0.89 93 1012.2
20260502152114 11 111 0.0 3.2 1.50 3.81 0.76 92 1012.6
20260502151127 11 120 0.0 1.6 1.70 3.71 0.74 92 1012.7
20260502150112 11 136 0.0 1.6 1.80 3.40 0.69 92 1012.8
20260502140116 11 122 0.0 0.0 1.40 1.60 0.33 89 1013.3
20260502130125 12 117 0.0 0.0 0.20 0.20 0.05 84 1013.5
20260502123138 13 109 0.0 1.6 0.10 0.10 0.03 82 1013.9
20260502122150 13 101 0.0 0.0 0.10 0.10 0.03 80 1014.1
20260502121115 14 110 0.0 1.6 0.00 0.00 0.00 78 1014.3
20260502120130 15 111 0.0 1.6 0.00 0.00 0.00 74 1014.4
20260502115115 15 108 0.0 1.6 0.00 0.00 0.00 71 1014.6
20260502114128 15 117 0.0 3.2 0.00 0.00 0.00 70 1014.7
20260502113115 16 149 0.0 3.2 0.00 0.00 0.00 68 1014.8
20260502112128 16 113 0.0 4.8 0.00 0.00 0.00 68 1014.8
20260502111114 17 105 0.0 1.6 0.00 0.10 0.00 68 1015.0
20260502110125 17 111 0.0 3.2 0.00 0.10 0.00 68 1014.9
20260502105121 17 110 0.0 1.6 0.00 0.10 0.00 70 1015.2
20260502104127 16 127 0.0 1.6 0.00 0.10 0.00 74 1015.2
20260502103119 16 97 0.0 1.6 0.00 0.10 0.00 75 1015.3
20260502102131 15 99 0.0 1.6 0.00 0.10 0.00 76 1015.5
20260502101117 15 111 0.0 1.6 0.00 0.30 0.00 75 1015.7
20260502100110 16 84 0.0 1.6 0.00 0.30 0.00 76 1016.1
20260502091121 15 99 0.0 1.6 0.00 0.30 0.00 79 1016.0
20260502090127 15 113 0.0 4.8 0.00 0.30 0.00 80 1016.1
20260502071140 11 98 0.0 0.0 0.00 0.30 0.00 93 1016.8
20260502070110 11 98 0.0 0.0 0.00 0.30 0.00 94 1016.8
20260502065123 10 98 0.0 0.0 0.00 0.30 0.00 94 1017.0
20260502064135 10 98 0.0 0.0 0.00 0.30 0.00 94 1016.8
20260502063121 10 98 0.0 0.0 0.00 0.30 0.00 94 1016.9
20260502062113 10 98 0.0 0.0 0.00 0.30 0.00 94 1016.8
20260502061127 9 98 0.0 0.0 0.00 0.30 0.00 95 1016.9
20260502060118 9 98 0.0 0.0 0.00 0.30 0.00 95 1017.1
20260502055131 8 98 0.0 0.0 0.00 0.30 0.00 95 1017.1
20260502054118 8 98 0.0 0.0 0.00 0.30 0.00 94 1017.1
20260502053150 7 98 0.0 0.0 0.00 0.30 0.00 94 1017.2
20260502052122 7 98 0.0 0.0 0.00 0.30 0.00 93 1017.3
20260502051129 7 98 0.0 0.0 0.00 0.30 0.00 93 1017.4
20260502050123 7 98 0.0 0.0 0.00 0.30 0.00 93 1017.3
20260502045132 7 98 0.0 0.0 0.00 0.30 0.00 93 1017.4
20260502044118 8 98 0.0 0.0 0.00 0.30 0.00 93 1017.5
20260502043130 8 98 0.0 0.0 0.00 0.30 0.00 93 1017.5
20260502042116 8 98 0.0 0.0 0.00 0.30 0.00 93 1017.5
20260502041128 8 98 0.0 0.0 0.00 0.30 0.00 93 1017.5
20260502040142 8 98 0.0 0.0 0.00 0.30 0.00 93 1017.6
20260502035153 8 98 0.0 0.0 0.00 0.30 0.00 93 1017.5
20260502034118 8 98 0.0 0.0 0.00 0.30 0.00 93 1017.5
20260502033132 8 98 0.0 0.0 0.00 0.30 0.00 93 1017.5
20260502032117 8 98 0.0 0.0 0.00 0.30 0.00 93 1017.6
20260502031129 8 98 0.0 0.0 0.00 0.30 0.00 93 1017.5
20260502030117 8 98 0.0 0.0 0.00 0.30 0.00 93 1017.7
20260502025122 7 98 0.0 0.0 0.00 0.30 0.00 93 1017.8
20260502024115 7 98 0.0 0.0 0.00 0.30 0.00 92 1018.0
20260502023148 7 98 0.0 0.0 0.00 0.30 0.00 91 1018.1
20260502022114 7 98 0.0 0.0 0.00 0.30 0.00 91 1018.2
20260502021146 7 98 0.0 0.0 0.00 0.30 0.00 91 1018.3
20260502020137 8 98 0.0 0.0 0.00 0.30 0.00 91 1018.4
20260502015129 8 98 0.0 0.0 0.00 0.30 0.00 90 1018.5
20260502014122 8 98 0.0 0.0 0.00 0.30 0.00 90 1018.6
20260502013128 8 98 0.0 0.0 0.00 0.30 0.00 90 1018.7
20260502012120 8 98 0.0 0.0 0.00 0.30 0.00 90 1018.9
20260502011133 9 98 0.0 0.0 0.00 0.30 0.00 90 1018.9
20260502010121 9 98 0.0 0.0 0.00 0.30 0.00 90 1019.0
20260502005134 9 98 0.0 0.0 0.00 0.30 0.00 90 1019.1
20260502004120 9 98 0.0 0.0 0.00 0.30 0.00 90 1019.1
20260502003134 9 98 0.0 0.0 0.00 0.30 0.00 88 1019.1
20260502002147 10 98 0.0 0.0 0.00 0.30 0.00 88 1019.2
20260502001133 10 98 0.0 0.0 0.00 0.30 0.00 86 1019.2
20260502000144 10 98 0.0 0.0 0.00 0.30 0.00 86 1019.3
20260501235115 10 98 0.0 0.0 0.00 0.30 0.00 86 1019.3
20260501234128 10 98 0.0 0.0 0.00 0.30 0.00 86 1019.3
20260501233114 10 98 0.0 0.0 0.00 0.30 0.00 85 1019.3
20260501232126 10 98 0.0 0.0 0.00 0.30 0.00 85 1019.4
20260501231119 11 98 0.0 0.0 0.00 0.30 0.05 84 1019.4
20260501230116 11 98 0.0 0.0 0.00 0.30 0.05 83 1019.4
20260501225126 11 98 0.0 0.0 0.00 0.30 0.05 83 1019.4
20260501224113 11 98 0.0 0.0 0.00 0.30 0.05 82 1019.4
20260501223126 12 98 0.0 0.0 0.00 0.30 0.05 82 1019.6
20260501222112 12 98 0.0 0.0 0.00 0.30 0.05 82 1019.6
20260501221124 12 98 0.0 0.0 0.00 0.30 0.05 82 1019.8
20260501220111 12 98 0.0 0.0 0.00 0.30 0.05 80 1019.9
20260501215144 12 98 0.0 0.0 0.00 0.30 0.05 80 1019.8
20260501214116 12 98 0.0 0.0 0.00 0.30 0.05 80 1019.9
20260501213129 12 98 0.0 0.0 0.00 0.30 0.05 80 1019.8
20260501212114 12 98 0.0 0.0 0.00 0.30 0.05 80 1019.8
20260501211128 12 97 0.0 1.6 0.00 0.30 0.05 80 1019.8